| time (UTC) | temp C | wind direction | speed KPH | gust KPH | rain 1hr cm | rain 24hr cm | rain mn cm | humidity % | barometer mb |
| 20260901175557 | 21 | 175 | 3.2 | 11.3 | 0.00 | 0.00 | 0.00 | 51 | 1016.6 |
| 20260901175058 | 21 | 205 | 4.8 | 11.3 | 0.00 | 0.00 | 0.00 | 52 | 1016.6 |
| 20260901174604 | 21 | 0 | 1.6 | 11.3 | 0.00 | 0.00 | 0.00 | 52 | 1016.6 |
| 20260901174100 | 20 | 134 | 1.6 | 11.3 | 0.00 | 0.00 | 0.00 | 53 | 1016.6 |
| 20260901173557 | 20 | 96 | 1.6 | 4.8 | 0.00 | 0.00 | 0.00 | 53 | 1016.6 |
| 20260901173105 | 20 | 105 | 1.6 | 4.8 | 0.00 | 0.00 | 0.00 | 55 | 1016.5 |
| 20260901172558 | 20 | 92 | 0.0 | 6.4 | 0.00 | 0.00 | 0.00 | 55 | 1016.6 |
| 20260901172058 | 20 | 0 | 0.0 | 6.4 | 0.00 | 0.00 | 0.00 | 54 | 1016.6 |
| 20260901171603 | 20 | 0 | 1.6 | 6.4 | 0.00 | 0.00 | 0.00 | 55 | 1016.6 |
| 20260901171057 | 20 | 0 | 1.6 | 8.0 | 0.00 | 0.00 | 0.00 | 55 | 1016.4 |
| 20260901170655 | 20 | 248 | 0.0 | 9.7 | 0.00 | 0.00 | 0.00 | 55 | 1016.5 |
| 20260901170557 | 20 | 248 | 0.0 | 9.7 | 0.00 | 0.00 | 0.00 | 55 | 1016.5 |
| 20260901170110 | 20 | 0 | 0.0 | 9.7 | 0.00 | 0.00 | 0.00 | 55 | 1016.4 |
| 20260901165557 | 20 | 328 | 1.6 | 6.4 | 0.00 | 0.00 | 0.00 | 56 | 1016.2 |
| 20260901165057 | 20 | 0 | 1.6 | 6.4 | 0.00 | 0.00 | 0.00 | 56 | 1016.3 |
| 20260901164628 | 20 | 105 | 1.6 | 4.8 | 0.00 | 0.00 | 0.00 | 55 | 1016.3 |
| 20260901164100 | 19 | 346 | 0.0 | 4.8 | 0.00 | 0.00 | 0.00 | 56 | 1016.3 |
| 20260901163558 | 19 | 150 | 0.0 | 4.8 | 0.00 | 0.00 | 0.00 | 57 | 1016.4 |
| 20260901163104 | 18 | 59 | 0.0 | 6.4 | 0.00 | 0.00 | 0.00 | 58 | 1016.4 |
| 20260901162601 | 18 | 0 | 1.6 | 6.4 | 0.00 | 0.00 | 0.00 | 59 | 1016.4 |
| 20260901162058 | 18 | 130 | 1.6 | 8.0 | 0.00 | 0.00 | 0.00 | 59 | 1016.5 |
| 20260901161602 | 18 | 161 | 3.2 | 8.0 | 0.00 | 0.00 | 0.00 | 60 | 1016.3 |
| 20260901161101 | 18 | 208 | 0.0 | 6.4 | 0.00 | 0.00 | 0.00 | 60 | 1016.5 |
| 20260901160559 | 18 | 0 | 1.6 | 6.4 | 0.00 | 0.00 | 0.00 | 60 | 1016.5 |
| 20260901160107 | 18 | 0 | 1.6 | 6.4 | 0.00 | 0.00 | 0.00 | 61 | 1016.4 |
| 20260901155557 | 17 | 0 | 1.6 | 6.4 | 0.00 | 0.00 | 0.00 | 61 | 1016.4 |
| 20260901155057 | 17 | 0 | 0.0 | 6.4 | 0.00 | 0.00 | 0.00 | 61 | 1016.2 |
| 20260901154604 | 17 | 182 | 0.0 | 6.4 | 0.00 | 0.00 | 0.00 | 62 | 1016.2 |
| 20260901154056 | 17 | 238 | 0.0 | 6.4 | 0.00 | 0.00 | 0.00 | 62 | 1016.2 |
| 20260901153556 | 17 | 0 | 1.6 | 6.4 | 0.00 | 0.00 | 0.00 | 62 | 1016.2 |
| 20260901153104 | 17 | 0 | 1.6 | 6.4 | 0.00 | 0.00 | 0.00 | 63 | 1016.1 |
| 20260901152558 | 17 | 0 | 0.0 | 6.4 | 0.00 | 0.00 | 0.00 | 64 | 1016.0 |
| 20260901152056 | 17 | 130 | 1.6 | 6.4 | 0.00 | 0.00 | 0.00 | 64 | 1015.9 |
| 20260901151615 | 16 | 173 | 0.0 | 6.4 | 0.00 | 0.00 | 0.00 | 65 | 1015.9 |
| 20260901151056 | 16 | 151 | 1.6 | 6.4 | 0.00 | 0.00 | 0.00 | 65 | 1015.9 |
| 20260901150556 | 16 | 0 | 0.0 | 4.8 | 0.00 | 0.00 | 0.00 | 66 | 1016.0 |
| 20260901150113 | 16 | 214 | 0.0 | 4.8 | 0.00 | 0.00 | 0.00 | 67 | 1015.9 |
| 20260901145556 | 16 | 0 | 0.0 | 4.8 | 0.00 | 0.00 | 0.00 | 67 | 1015.9 |
| 20260901145146 | 16 | 161 | 0.0 | 4.8 | 0.00 | 0.00 | 0.00 | 67 | 1015.7 |
| 20260901145055 | 16 | 161 | 0.0 | 4.8 | 0.00 | 0.00 | 0.00 | 67 | 1015.7 |
| 20260901144607 | 16 | 231 | 0.0 | 6.4 | 0.00 | 0.00 | 0.00 | 67 | 1015.6 |
| 20260901144055 | 16 | 0 | 0.0 | 6.4 | 0.00 | 0.00 | 0.00 | 68 | 1015.6 |
| 20260901143558 | 16 | 0 | 0.0 | 3.2 | 0.00 | 0.00 | 0.00 | 68 | 1015.6 |
| 20260901143104 | 16 | 0 | 0.0 | 4.8 | 0.00 | 0.00 | 0.00 | 68 | 1015.4 |
| 20260901142558 | 16 | 185 | 0.0 | 6.4 | 0.00 | 0.00 | 0.00 | 68 | 1015.3 |
| 20260901142057 | 16 | 0 | 0.0 | 6.4 | 0.00 | 0.00 | 0.00 | 68 | 1015.2 |
| 20260901141607 | 16 | 176 | 0.0 | 6.4 | 0.00 | 0.00 | 0.00 | 68 | 1015.1 |
| 20260901141057 | 16 | 0 | 1.6 | 6.4 | 0.00 | 0.00 | 0.00 | 68 | 1015.0 |
| 20260901140556 | 16 | 178 | 0.0 | 6.4 | 0.00 | 0.00 | 0.00 | 68 | 1015.0 |
| 20260901140108 | 16 | 0 | 0.0 | 6.4 | 0.00 | 0.00 | 0.00 | 68 | 1014.9 |
| 20260901135556 | 16 | 140 | 0.0 | 8.0 | 0.00 | 0.00 | 0.00 | 68 | 1014.9 |
| 20260901135056 | 16 | 144 | 1.6 | 8.0 | 0.00 | 0.00 | 0.00 | 68 | 1014.7 |
| 20260901134625 | 15 | 0 | 0.0 | 4.8 | 0.00 | 0.00 | 0.00 | 68 | 1014.7 |
| 20260901134057 | 16 | 0 | 0.0 | 6.4 | 0.00 | 0.00 | 0.00 | 68 | 1014.7 |
| 20260901133634 | 15 | 0 | 0.0 | 6.4 | 0.00 | 0.00 | 0.00 | 68 | 1014.7 |
| 20260901133555 | 15 | 0 | 0.0 | 6.4 | 0.00 | 0.00 | 0.00 | 68 | 1014.7 |
| 20260901133112 | 15 | 133 | 0.0 | 4.8 | 0.00 | 0.00 | 0.00 | 68 | 1014.8 |
| 20260901132557 | 16 | 141 | 0.0 | 4.8 | 0.00 | 0.00 | 0.00 | 69 | 1014.6 |
| 20260901132057 | 16 | 0 | 0.0 | 4.8 | 0.00 | 0.00 | 0.00 | 69 | 1014.6 |
| 20260901131608 | 16 | 141 | 0.0 | 3.2 | 0.00 | 0.00 | 0.00 | 69 | 1014.6 |
| 20260901131057 | 16 | 0 | 0.0 | 4.8 | 0.00 | 0.00 | 0.00 | 69 | 1014.6 |
| 20260901130558 | 16 | 0 | 0.0 | 4.8 | 0.00 | 0.00 | 0.00 | 69 | 1014.5 |
| 20260901130103 | 15 | 0 | 0.0 | 3.2 | 0.00 | 0.00 | 0.00 | 69 | 1014.6 |
| 20260901125600 | 16 | 0 | 0.0 | 4.8 | 0.00 | 0.00 | 0.00 | 70 | 1014.6 |
| 20260901125101 | 15 | 0 | 0.0 | 6.4 | 0.00 | 0.00 | 0.00 | 70 | 1014.4 |
| 20260901124608 | 15 | 0 | 0.0 | 6.4 | 0.00 | 0.00 | 0.00 | 70 | 1014.4 |
| 20260901124059 | 16 | 0 | 0.0 | 9.7 | 0.00 | 0.00 | 0.00 | 70 | 1014.5 |
| 20260901123557 | 16 | 0 | 0.0 | 9.7 | 0.00 | 0.00 | 0.00 | 70 | 1014.5 |
| 20260901123102 | 16 | 0 | 0.0 | 1.6 | 0.00 | 0.00 | 0.00 | 70 | 1014.5 |
| 20260901122643 | 16 | 0 | 0.0 | 1.6 | 0.00 | 0.00 | 0.00 | 70 | 1014.5 |
| 20260901122556 | 16 | 0 | 0.0 | 1.6 | 0.00 | 0.00 | 0.00 | 70 | 1014.5 |
| 20260901122056 | 16 | 0 | 0.0 | 1.6 | 0.00 | 0.00 | 0.00 | 70 | 1014.5 |
| 20260901121603 | 16 | 0 | 0.0 | 1.6 | 0.00 | 0.00 | 0.00 | 70 | 1014.5 |
| 20260901121057 | 16 | 0 | 0.0 | 1.6 | 0.00 | 0.00 | 0.00 | 70 | 1014.5 |
| 20260901120600 | 16 | 0 | 0.0 | 1.6 | 0.00 | 0.00 | 0.00 | 70 | 1014.4 |
| 20260901120112 | 16 | 0 | 0.0 | 0.0 | 0.00 | 0.00 | 0.00 | 70 | 1014.4 |
| 20260901115556 | 16 | 0 | 0.0 | 1.6 | 0.00 | 0.00 | 0.00 | 70 | 1014.4 |
| 20260901115144 | 16 | 0 | 0.0 | 1.6 | 0.00 | 0.00 | 0.00 | 70 | 1014.4 |
| 20260901115100 | 16 | 0 | 0.0 | 1.6 | 0.00 | 0.00 | 0.00 | 70 | 1014.4 |
| 20260901114608 | 16 | 0 | 0.0 | 3.2 | 0.00 | 0.00 | 0.00 | 71 | 1014.4 |
| 20260901114055 | 16 | 0 | 0.0 | 6.4 | 0.00 | 0.00 | 0.00 | 71 | 1014.6 |
| 20260901113559 | 16 | 0 | 0.0 | 6.4 | 0.00 | 0.00 | 0.00 | 71 | 1014.7 |
| 20260901113108 | 16 | 256 | 0.0 | 6.4 | 0.00 | 0.00 | 0.00 | 71 | 1014.7 |
| 20260901112557 | 16 | 0 | 0.0 | 6.4 | 0.00 | 0.00 | 0.00 | 71 | 1014.7 |
| 20260901112057 | 16 | 279 | 0.0 | 6.4 | 0.00 | 0.00 | 0.00 | 70 | 1014.7 |
| 20260901111607 | 16 | 0 | 0.0 | 6.4 | 0.00 | 0.00 | 0.00 | 70 | 1014.7 |
| 20260901111057 | 16 | 243 | 0.0 | 6.4 | 0.00 | 0.00 | 0.00 | 70 | 1014.9 |
| 20260901110557 | 16 | 273 | 0.0 | 4.8 | 0.00 | 0.00 | 0.00 | 70 | 1014.8 |
| 20260901110106 | 16 | 0 | 0.0 | 4.8 | 0.00 | 0.00 | 0.00 | 71 | 1014.7 |
| 20260901105557 | 16 | 0 | 0.0 | 4.8 | 0.00 | 0.00 | 0.00 | 71 | 1014.7 |
| 20260901105229 | 16 | 0 | 0.0 | 4.8 | 0.00 | 0.00 | 0.00 | 71 | 1014.6 |
| 20260901104606 | 16 | 230 | 0.0 | 4.8 | 0.00 | 0.00 | 0.00 | 71 | 1014.7 |
| 20260901104157 | 16 | 0 | 0.0 | 3.2 | 0.00 | 0.00 | 0.00 | 72 | 1014.6 |
| 20260901104056 | 16 | 0 | 0.0 | 3.2 | 0.00 | 0.00 | 0.00 | 72 | 1014.6 |
| 20260901103557 | 16 | 0 | 0.0 | 4.8 | 0.00 | 0.00 | 0.00 | 72 | 1014.6 |
| 20260901103114 | 16 | 0 | 0.0 | 4.8 | 0.00 | 0.00 | 0.00 | 72 | 1014.6 |
| 20260901102556 | 16 | 0 | 0.0 | 4.8 | 0.00 | 0.00 | 0.00 | 72 | 1014.6 |
| 20260901102111 | 16 | 269 | 0.0 | 4.8 | 0.00 | 0.00 | 0.00 | 72 | 1014.5 |
| 20260901101610 | 16 | 260 | 0.0 | 4.8 | 0.00 | 0.00 | 0.00 | 72 | 1014.4 |
| 20260901101057 | 16 | 0 | 0.0 | 1.6 | 0.00 | 0.00 | 0.00 | 72 | 1014.4 |
| 20260901100558 | 16 | 0 | 0.0 | 1.6 | 0.00 | 0.00 | 0.00 | 72 | 1014.4 |
| 20260901100104 | 16 | 0 | 0.0 | 3.2 | 0.00 | 0.00 | 0.00 | 72 | 1014.4 |
| 20260901095556 | 16 | 0 | 0.0 | 3.2 | 0.00 | 0.00 | 0.00 | 72 | 1014.3 |
| 20260901095056 | 16 | 0 | 0.0 | 4.8 | 0.00 | 0.00 | 0.00 | 72 | 1014.4 |
| 20260901094840 | 16 | 0 | 0.0 | 4.8 | 0.00 | 0.00 | 0.00 | 72 | 1014.4 |
| 20260901094220 | 16 | 237 | 0.0 | 3.2 | 0.00 | 0.00 | 0.00 | 72 | 1014.3 |
| 20260901094059 | 16 | 237 | 0.0 | 3.2 | 0.00 | 0.00 | 0.00 | 72 | 1014.3 |
| 20260901093559 | 16 | 0 | 0.0 | 3.2 | 0.00 | 0.00 | 0.00 | 72 | 1014.3 |
| 20260901093103 | 16 | 0 | 0.0 | 6.4 | 0.00 | 0.00 | 0.00 | 72 | 1014.3 |
| 20260901092650 | 16 | 0 | 0.0 | 6.4 | 0.00 | 0.00 | 0.00 | 72 | 1014.4 |
| 20260901092615 | 16 | 0 | 0.0 | 6.4 | 0.00 | 0.00 | 0.00 | 72 | 1014.4 |
| 20260901092100 | 16 | 0 | 0.0 | 4.8 | 0.00 | 0.00 | 0.00 | 72 | 1014.4 |
| 20260901091606 | 16 | 0 | 0.0 | 4.8 | 0.00 | 0.00 | 0.00 | 72 | 1014.3 |
| 20260901091056 | 16 | 227 | 0.0 | 4.8 | 0.00 | 0.00 | 0.00 | 72 | 1014.4 |
| 20260901090644 | 16 | 270 | 0.0 | 4.8 | 0.00 | 0.00 | 0.00 | 72 | 1014.4 |
| 20260901090558 | 16 | 270 | 0.0 | 4.8 | 0.00 | 0.00 | 0.00 | 72 | 1014.4 |
| 20260901090107 | 16 | 0 | 0.0 | 4.8 | 0.00 | 0.00 | 0.00 | 72 | 1014.4 |
| 20260901085556 | 16 | 0 | 0.0 | 4.8 | 0.00 | 0.00 | 0.00 | 72 | 1014.3 |
| 20260901085059 | 16 | 0 | 0.0 | 1.6 | 0.00 | 0.00 | 0.00 | 72 | 1014.4 |
| 20260901084559 | 16 | 0 | 0.0 | 1.6 | 0.00 | 0.00 | 0.00 | 72 | 1014.3 |
| 20260901084056 | 16 | 0 | 0.0 | 1.6 | 0.00 | 0.00 | 0.00 | 72 | 1014.2 |
| 20260901083558 | 16 | 0 | 0.0 | 1.6 | 0.00 | 0.00 | 0.00 | 72 | 1014.3 |
| 20260901083109 | 16 | 0 | 0.0 | 3.2 | 0.00 | 0.00 | 0.00 | 72 | 1014.2 |
| 20260901082558 | 16 | 0 | 0.0 | 4.8 | 0.00 | 0.00 | 0.00 | 72 | 1014.4 |
| 20260901082101 | 16 | 275 | 0.0 | 4.8 | 0.00 | 0.00 | 0.00 | 72 | 1014.3 |
| 20260901081606 | 16 | 0 | 0.0 | 4.8 | 0.00 | 0.00 | 0.00 | 72 | 1014.3 |
| 20260901081057 | 16 | 0 | 0.0 | 6.4 | 0.00 | 0.00 | 0.00 | 72 | 1014.4 |
| 20260901080556 | 16 | 0 | 0.0 | 6.4 | 0.00 | 0.00 | 0.00 | 72 | 1014.4 |
| 20260901080118 | 16 | 0 | 0.0 | 6.4 | 0.00 | 0.00 | 0.00 | 72 | 1014.5 |
| 20260901075557 | 16 | 0 | 0.0 | 6.4 | 0.00 | 0.00 | 0.00 | 72 | 1014.3 |
| 20260901075057 | 16 | 0 | 0.0 | 6.4 | 0.00 | 0.00 | 0.00 | 72 | 1014.2 |
| 20260901074602 | 16 | 0 | 0.0 | 6.4 | 0.00 | 0.00 | 0.00 | 72 | 1014.2 |
| 20260901074100 | 16 | 0 | 1.6 | 6.4 | 0.00 | 0.00 | 0.00 | 72 | 1014.2 |
| 20260901073556 | 16 | 261 | 0.0 | 6.4 | 0.00 | 0.00 | 0.00 | 72 | 1014.2 |
| 20260901073114 | 16 | 0 | 0.0 | 4.8 | 0.00 | 0.00 | 0.00 | 72 | 1014.3 |
| 20260901072556 | 16 | 196 | 1.6 | 6.4 | 0.00 | 0.00 | 0.00 | 72 | 1014.3 |
| 20260901072106 | 16 | 306 | 0.0 | 9.7 | 0.00 | 0.00 | 0.00 | 72 | 1014.3 |
| 20260901071602 | 16 | 276 | 1.6 | 9.7 | 0.00 | 0.00 | 0.00 | 72 | 1014.2 |
| 20260901071055 | 16 | 243 | 1.6 | 9.7 | 0.00 | 0.00 | 0.00 | 72 | 1014.2 |
| 20260901070557 | 16 | 345 | 1.6 | 6.4 | 0.00 | 0.00 | 0.00 | 72 | 1014.2 |
| 20260901070107 | 16 | 284 | 0.0 | 9.7 | 0.00 | 0.00 | 0.00 | 72 | 1014.3 |
| 20260901065557 | 16 | 0 | 1.6 | 9.7 | 0.00 | 0.00 | 0.00 | 72 | 1014.3 |
| 20260901065058 | 16 | 320 | 0.0 | 3.2 | 0.00 | 0.00 | 0.00 | 72 | 1014.2 |
| 20260901064611 | 16 | 0 | 0.0 | 8.0 | 0.00 | 0.00 | 0.00 | 72 | 1014.3 |
| 20260901064130 | 16 | 0 | 0.0 | 9.7 | 0.00 | 0.00 | 0.00 | 72 | 1014.4 |
| 20260901064057 | 16 | 0 | 0.0 | 9.7 | 0.00 | 0.00 | 0.00 | 72 | 1014.4 |
| 20260901063558 | 16 | 271 | 1.6 | 9.7 | 0.00 | 0.00 | 0.00 | 72 | 1014.4 |
| 20260901063104 | 16 | 263 | 0.0 | 6.4 | 0.00 | 0.00 | 0.00 | 72 | 1014.4 |
| 20260901062557 | 16 | 282 | 0.0 | 6.4 | 0.00 | 0.00 | 0.00 | 72 | 1014.5 |
| 20260901062154 | 16 | 0 | 0.0 | 4.8 | 0.00 | 0.00 | 0.00 | 72 | 1014.6 |
| 20260901062056 | 16 | 0 | 0.0 | 4.8 | 0.00 | 0.00 | 0.00 | 72 | 1014.6 |
| 20260901061603 | 16 | 0 | 0.0 | 11.3 | 0.00 | 0.00 | 0.00 | 73 | 1014.6 |
| 20260901061056 | 16 | 252 | 3.2 | 11.3 | 0.00 | 0.00 | 0.00 | 73 | 1014.5 |
| 20260901060557 | 16 | 0 | 1.6 | 9.7 | 0.00 | 0.00 | 0.00 | 72 | 1014.5 |
| 20260901060117 | 16 | 227 | 1.6 | 4.8 | 0.00 | 0.00 | 0.00 | 73 | 1014.6 |
| 20260901055556 | 16 | 325 | 0.0 | 4.8 | 0.00 | 0.00 | 0.00 | 73 | 1014.7 |
| 20260901055056 | 16 | 263 | 0.0 | 4.8 | 0.00 | 0.00 | 0.00 | 73 | 1014.7 |
| 20260901054630 | 16 | 272 | 0.0 | 4.8 | 0.00 | 0.00 | 0.00 | 74 | 1014.7 |
| 20260901054104 | 16 | 0 | 0.0 | 4.8 | 0.00 | 0.00 | 0.00 | 74 | 1014.7 |
| 20260901053600 | 16 | 252 | 0.0 | 8.0 | 0.00 | 0.00 | 0.00 | 74 | 1014.6 |
| 20260901053127 | 15 | 0 | 0.0 | 8.0 | 0.00 | 0.00 | 0.00 | 75 | 1014.6 |
| 20260901052556 | 15 | 244 | 1.6 | 8.0 | 0.00 | 0.00 | 0.00 | 75 | 1014.5 |
| 20260901052100 | 15 | 313 | 1.6 | 8.0 | 0.00 | 0.00 | 0.00 | 75 | 1014.5 |
| 20260901051612 | 15 | 260 | 1.6 | 12.9 | 0.00 | 0.00 | 0.00 | 75 | 1014.6 |
| 20260901051100 | 15 | 225 | 0.0 | 12.9 | 0.00 | 0.00 | 0.00 | 75 | 1014.5 |
| 20260901050559 | 15 | 315 | 1.6 | 12.9 | 0.00 | 0.00 | 0.00 | 75 | 1014.4 |
| 20260901045558 | 15 | 316 | 0.0 | 6.4 | 0.00 | 0.00 | 0.00 | 75 | 1014.3 |
| 20260901045058 | 15 | 305 | 0.0 | 9.7 | 0.00 | 0.00 | 0.00 | 75 | 1014.2 |
| 20260901044610 | 15 | 325 | 1.6 | 9.7 | 0.00 | 0.00 | 0.00 | 74 | 1014.1 |
| 20260901044102 | 15 | 292 | 0.0 | 8.0 | 0.00 | 0.00 | 0.00 | 74 | 1014.0 |
| 20260901043557 | 15 | 255 | 0.0 | 6.4 | 0.00 | 0.00 | 0.00 | 74 | 1014.1 |
| 20260901043109 | 15 | 0 | 1.6 | 11.3 | 0.00 | 0.00 | 0.00 | 74 | 1014.1 |
| 20260901042559 | 16 | 0 | 3.2 | 12.9 | 0.00 | 0.00 | 0.00 | 74 | 1014.0 |
| 20260901042059 | 16 | 287 | 3.2 | 14.5 | 0.00 | 0.00 | 0.00 | 74 | 1014.1 |
| 20260901041649 | 16 | 248 | 6.4 | 14.5 | 0.00 | 0.00 | 0.00 | 74 | 1014.1 |
| 20260901041604 | 16 | 248 | 6.4 | 14.5 | 0.00 | 0.00 | 0.00 | 74 | 1014.1 |
| 20260901041057 | 16 | 283 | 0.0 | 14.5 | 0.00 | 0.00 | 0.00 | 75 | 1014.0 |
| 20260901040641 | 16 | 0 | 3.2 | 14.5 | 0.00 | 0.00 | 0.00 | 75 | 1013.9 |
| 20260901040558 | 16 | 0 | 3.2 | 14.5 | 0.00 | 0.00 | 0.00 | 75 | 1013.9 |
| 20260901040113 | 16 | 297 | 1.6 | 11.3 | 0.00 | 0.00 | 0.00 | 75 | 1013.9 |
| 20260901035600 | 16 | 0 | 3.2 | 11.3 | 0.00 | 0.00 | 0.00 | 75 | 1013.9 |
| 20260901035058 | 16 | 0 | 3.2 | 11.3 | 0.00 | 0.00 | 0.00 | 75 | 1013.8 |
| 20260901034612 | 16 | 281 | 3.2 | 11.3 | 0.00 | 0.00 | 0.00 | 75 | 1013.7 |
| 20260901034059 | 16 | 309 | 3.2 | 12.9 | 0.00 | 0.00 | 0.00 | 75 | 1013.7 |
| 20260901033557 | 16 | 266 | 4.8 | 12.9 | 0.00 | 0.00 | 0.00 | 74 | 1013.6 |
| 20260901033104 | 16 | 0 | 4.8 | 12.9 | 0.00 | 0.00 | 0.00 | 74 | 1013.7 |
| 20260901032558 | 16 | 0 | 3.2 | 14.5 | 0.00 | 0.00 | 0.00 | 73 | 1013.5 |
| 20260901032058 | 16 | 314 | 3.2 | 14.5 | 0.00 | 0.00 | 0.00 | 73 | 1013.5 |
| 20260901031601 | 16 | 304 | 3.2 | 14.5 | 0.00 | 0.00 | 0.00 | 73 | 1013.4 |
| 20260901031057 | 16 | 282 | 1.6 | 12.9 | 0.00 | 0.00 | 0.00 | 72 | 1013.4 |
| 20260901030559 | 17 | 302 | 3.2 | 14.5 | 0.00 | 0.00 | 0.00 | 72 | 1013.4 |
| 20260901025556 | 17 | 302 | 3.2 | 14.5 | 0.00 | 0.00 | 0.00 | 72 | 1013.1 |
| 20260901025057 | 17 | 288 | 3.2 | 14.5 | 0.00 | 0.00 | 0.00 | 71 | 1013.1 |
| 20260901024603 | 17 | 310 | 1.6 | 16.1 | 0.00 | 0.00 | 0.00 | 71 | 1013.2 |
| 20260901024058 | 17 | 287 | 4.8 | 16.1 | 0.00 | 0.00 | 0.00 | 70 | 1013.1 |
| 20260901023601 | 17 | 314 | 6.4 | 16.1 | 0.00 | 0.00 | 0.00 | 70 | 1013.1 |
| 20260901023108 | 17 | 307 | 3.2 | 14.5 | 0.00 | 0.00 | 0.00 | 70 | 1013.0 |
| 20260901022633 | 17 | 293 | 3.2 | 16.1 | 0.00 | 0.00 | 0.00 | 69 | 1013.2 |
| 20260901022556 | 17 | 293 | 3.2 | 16.1 | 0.00 | 0.00 | 0.00 | 69 | 1013.2 |
| 20260901022201 | 17 | 303 | 6.4 | 16.1 | 0.00 | 0.00 | 0.00 | 69 | 1013.0 |
| 20260901022059 | 17 | 303 | 6.4 | 16.1 | 0.00 | 0.00 | 0.00 | 69 | 1013.0 |
| 20260901021656 | 18 | 296 | 6.4 | 16.1 | 0.00 | 0.00 | 0.00 | 69 | 1013.1 |
| 20260901021604 | 18 | 296 | 6.4 | 16.1 | 0.00 | 0.00 | 0.00 | 69 | 1013.1 |
| 20260901021100 | 18 | 283 | 4.8 | 22.5 | 0.00 | 0.00 | 0.00 | 68 | 1013.1 |
| 20260901020556 | 18 | 317 | 4.8 | 22.5 | 0.00 | 0.00 | 0.00 | 68 | 1013.0 |
| 20260901020104 | 18 | 260 | 6.4 | 22.5 | 0.00 | 0.00 | 0.00 | 67 | 1013.0 |
| 20260901015638 | 18 | 334 | 4.8 | 19.3 | 0.00 | 0.00 | 0.00 | 66 | 1012.9 |
| 20260901015556 | 18 | 334 | 4.8 | 19.3 | 0.00 | 0.00 | 0.00 | 66 | 1012.9 |
| 20260901015056 | 18 | 248 | 4.8 | 19.3 | 0.00 | 0.00 | 0.00 | 66 | 1012.9 |
| 20260901014603 | 19 | 338 | 8.0 | 19.3 | 0.00 | 0.00 | 0.00 | 66 | 1012.9 |
| 20260901014058 | 19 | 321 | 4.8 | 19.3 | 0.00 | 0.00 | 0.00 | 66 | 1013.0 |
| 20260901013558 | 19 | 344 | 8.0 | 19.3 | 0.00 | 0.00 | 0.00 | 66 | 1012.9 |
| 20260901013100 | 19 | 325 | 8.0 | 19.3 | 0.00 | 0.00 | 0.00 | 65 | 1012.9 |
| 20260901012600 | 20 | 304 | 9.7 | 17.7 | 0.00 | 0.00 | 0.00 | 65 | 1012.9 |
| 20260901012056 | 20 | 303 | 6.4 | 19.3 | 0.00 | 0.00 | 0.00 | 64 | 1013.0 |
| 20260901011607 | 20 | 331 | 9.7 | 19.3 | 0.00 | 0.00 | 0.00 | 64 | 1013.1 |
| 20260901011056 | 20 | 311 | 8.0 | 17.7 | 0.00 | 0.00 | 0.00 | 64 | 1013.1 |
| 20260901010558 | 20 | 336 | 8.0 | 19.3 | 0.00 | 0.00 | 0.00 | 63 | 1013.2 |
| 20260901010105 | 20 | 336 | 8.0 | 22.5 | 0.00 | 0.00 | 0.00 | 63 | 1013.2 |
| 20260901005558 | 20 | 336 | 3.2 | 22.5 | 0.00 | 0.00 | 0.00 | 64 | 1013.1 |
| 20260901005058 | 20 | 352 | 11.3 | 22.5 | 0.00 | 0.00 | 0.00 | 64 | 1013.2 |
| 20260901004608 | 20 | 352 | 11.3 | 20.9 | 0.00 | 0.00 | 0.00 | 62 | 1013.0 |
| 20260901004100 | 20 | 325 | 8.0 | 20.9 | 0.00 | 0.00 | 0.00 | 63 | 1013.0 |
| 20260901003556 | 20 | 9 | 6.4 | 20.9 | 0.00 | 0.00 | 0.00 | 61 | 1013.0 |
| 20260901003136 | 20 | 332 | 11.3 | 20.9 | 0.00 | 0.00 | 0.00 | 61 | 1013.0 |
| 20260901003102 | 20 | 332 | 11.3 | 20.9 | 0.00 | 0.00 | 0.00 | 61 | 1013.0 |
| 20260901002704 | 21 | 334 | 8.0 | 19.3 | 0.00 | 0.00 | 0.00 | 61 | 1012.8 |
| 20260901002616 | 21 | 334 | 8.0 | 19.3 | 0.00 | 0.00 | 0.00 | 61 | 1012.8 |
| 20260901002058 | 21 | 274 | 6.4 | 22.5 | 0.00 | 0.00 | 0.00 | 62 | 1012.9 |
| 20260901001602 | 21 | 305 | 9.7 | 22.5 | 0.00 | 0.00 | 0.00 | 62 | 1012.9 |
| 20260901001056 | 21 | 311 | 9.7 | 22.5 | 0.00 | 0.00 | 0.00 | 61 | 1012.8 |
| 20260901000658 | 21 | 303 | 8.0 | 19.3 | 0.00 | 0.00 | 0.00 | 61 | 1012.9 |
| 20260901000558 | 21 | 303 | 8.0 | 19.3 | 0.00 | 0.00 | 0.00 | 61 | 1012.9 |
| 20260901000105 | 21 | 307 | 9.7 | 22.5 | 0.00 | 0.00 | 0.00 | 61 | 1013.1 |
| 20260831235557 | 21 | 314 | 9.7 | 22.5 | 0.00 | 0.00 | 0.00 | 61 | 1013.1 |
| 20260831235056 | 21 | 352 | 9.7 | 20.9 | 0.00 | 0.00 | 0.00 | 62 | 1013.1 |
| 20260831234559 | 21 | 318 | 11.3 | 24.1 | 0.00 | 0.00 | 0.00 | 61 | 1013.1 |
| 20260831234142 | 21 | 329 | 11.3 | 24.1 | 0.00 | 0.00 | 0.00 | 61 | 1013.0 |
| 20260831234058 | 21 | 329 | 11.3 | 24.1 | 0.00 | 0.00 | 0.00 | 61 | 1013.0 |
| 20260831233557 | 21 | 5 | 8.0 | 20.9 | 0.00 | 0.00 | 0.00 | 61 | 1013.2 |
| 20260831233203 | 21 | 325 | 8.0 | 25.7 | 0.00 | 0.00 | 0.00 | 62 | 1013.0 |
| 20260831233103 | 21 | 325 | 8.0 | 25.7 | 0.00 | 0.00 | 0.00 | 62 | 1013.0 |
| 20260831232558 | 21 | 293 | 11.3 | 25.7 | 0.00 | 0.00 | 0.00 | 62 | 1013.2 |
| 20260831232057 | 21 | 23 | 9.7 | 22.5 | 0.00 | 0.00 | 0.00 | 62 | 1013.2 |
| 20260831231604 | 21 | 344 | 9.7 | 22.5 | 0.00 | 0.00 | 0.00 | 63 | 1013.1 |
| 20260831231058 | 21 | 321 | 8.0 | 20.9 | 0.00 | 0.00 | 0.00 | 62 | 1013.2 |
| 20260831230557 | 21 | 360 | 12.9 | 22.5 | 0.00 | 0.00 | 0.00 | 61 | 1013.3 |
| 20260831230114 | 21 | 313 | 9.7 | 25.7 | 0.00 | 0.00 | 0.00 | 61 | 1013.3 |
| 20260831225600 | 21 | 342 | 11.3 | 25.7 | 0.00 | 0.00 | 0.00 | 61 | 1013.2 |
| 20260831225058 | 21 | 5 | 9.7 | 22.5 | 0.00 | 0.00 | 0.00 | 61 | 1013.4 |
| 20260831224603 | 21 | 342 | 8.0 | 22.5 | 0.00 | 0.00 | 0.00 | 62 | 1013.4 |
| 20260831224056 | 21 | 342 | 11.3 | 22.5 | 0.00 | 0.00 | 0.00 | 61 | 1013.4 |
| 20260831223558 | 22 | 348 | 11.3 | 20.9 | 0.00 | 0.00 | 0.00 | 61 | 1013.5 |
| 20260831223103 | 22 | 326 | 8.0 | 22.5 | 0.00 | 0.00 | 0.00 | 61 | 1013.3 |
| 20260831222558 | 21 | 44 | 11.3 | 22.5 | 0.00 | 0.00 | 0.00 | 60 | 1013.4 |
| 20260831222058 | 22 | 310 | 11.3 | 22.5 | 0.00 | 0.00 | 0.00 | 60 | 1013.5 |
| 20260831221605 | 22 | 295 | 8.0 | 22.5 | 0.00 | 0.00 | 0.00 | 60 | 1013.6 |
| 20260831221058 | 22 | 360 | 8.0 | 24.1 | 0.00 | 0.00 | 0.00 | 61 | 1013.5 |
| 20260831220557 | 22 | 360 | 6.4 | 24.1 | 0.00 | 0.00 | 0.00 | 61 | 1013.4 |
| 20260831220129 | 21 | 58 | 11.3 | 24.1 | 0.00 | 0.00 | 0.00 | 61 | 1013.6 |
| 20260831215600 | 22 | 326 | 9.7 | 24.1 | 0.00 | 0.00 | 0.00 | 60 | 1013.7 |
| 20260831215057 | 22 | 5 | 9.7 | 24.1 | 0.00 | 0.00 | 0.00 | 60 | 1013.7 |
| 20260831214603 | 22 | 315 | 8.0 | 24.1 | 0.00 | 0.00 | 0.00 | 61 | 1013.8 |
| 20260831214056 | 22 | 45 | 11.3 | 25.7 | 0.00 | 0.00 | 0.00 | 60 | 1013.7 |
| 20260831213656 | 22 | 338 | 11.3 | 25.7 | 0.00 | 0.00 | 0.00 | 60 | 1013.7 |
| 20260831213600 | 22 | 338 | 11.3 | 25.7 | 0.00 | 0.00 | 0.00 | 60 | 1013.7 |
| 20260831213118 | 22 | 326 | 8.0 | 22.5 | 0.00 | 0.00 | 0.00 | 59 | 1013.9 |
| 20260831212558 | 23 | 26 | 9.7 | 22.5 | 0.00 | 0.00 | 0.00 | 57 | 1014.0 |
| 20260831212101 | 23 | 19 | 1.6 | 19.3 | 0.00 | 0.00 | 0.00 | 58 | 1014.1 |
| 20260831211614 | 22 | 352 | 8.0 | 19.3 | 0.00 | 0.00 | 0.00 | 59 | 1014.0 |
| 20260831211119 | 22 | 352 | 6.4 | 16.1 | 0.00 | 0.00 | 0.00 | 59 | 1014.0 |
| 20260831210556 | 22 | 9 | 3.2 | 17.7 | 0.00 | 0.00 | 0.00 | 61 | 1014.0 |
| 20260831210106 | 22 | 50 | 8.0 | 17.7 | 0.00 | 0.00 | 0.00 | 60 | 1014.0 |
| 20260831205556 | 22 | 43 | 6.4 | 14.5 | 0.00 | 0.00 | 0.00 | 60 | 1014.1 |
| 20260831205058 | 22 | 352 | 4.8 | 19.3 | 0.00 | 0.00 | 0.00 | 61 | 1014.1 |
| 20260831204602 | 22 | 284 | 8.0 | 19.3 | 0.00 | 0.00 | 0.00 | 59 | 1014.2 |
| 20260831204058 | 22 | 0 | 4.8 | 20.9 | 0.00 | 0.00 | 0.00 | 61 | 1014.2 |
| 20260831203559 | 22 | 78 | 8.0 | 20.9 | 0.00 | 0.00 | 0.00 | 61 | 1014.2 |
| 20260831203112 | 22 | 60 | 6.4 | 17.7 | 0.00 | 0.00 | 0.00 | 60 | 1014.3 |
| 20260831202600 | 21 | 0 | 4.8 | 16.1 | 0.00 | 0.00 | 0.00 | 61 | 1014.3 |
| 20260831202058 | 21 | 339 | 6.4 | 16.1 | 0.00 | 0.00 | 0.00 | 61 | 1014.3 |
| 20260831201604 | 22 | 60 | 6.4 | 16.1 | 0.00 | 0.00 | 0.00 | 60 | 1014.3 |
| 20260831201057 | 22 | 20 | 4.8 | 12.9 | 0.00 | 0.00 | 0.00 | 61 | 1014.3 |
| 20260831200558 | 22 | 17 | 4.8 | 12.9 | 0.00 | 0.00 | 0.00 | 60 | 1014.3 |
| 20260831200142 | 21 | 293 | 3.2 | 12.9 | 0.00 | 0.00 | 0.00 | 59 | 1014.4 |
| 20260831195556 | 21 | 297 | 4.8 | 12.9 | 0.00 | 0.00 | 0.00 | 61 | 1014.4 |
| 20260831195057 | 21 | 313 | 1.6 | 12.9 | 0.00 | 0.00 | 0.00 | 60 | 1014.4 |
| 20260831194604 | 21 | 275 | 3.2 | 14.5 | 0.00 | 0.00 | 0.00 | 60 | 1014.5 |
| 20260831194057 | 21 | 273 | 3.2 | 14.5 | 0.00 | 0.00 | 0.00 | 61 | 1014.4 |
| 20260831193559 | 21 | 243 | 1.6 | 11.3 | 0.00 | 0.00 | 0.00 | 61 | 1014.5 |
| 20260831193100 | 21 | 312 | 3.2 | 11.3 | 0.00 | 0.00 | 0.00 | 61 | 1014.6 |
| 20260831192557 | 21 | 265 | 1.6 | 11.3 | 0.00 | 0.00 | 0.00 | 63 | 1014.6 |
| 20260831192058 | 20 | 127 | 3.2 | 11.3 | 0.00 | 0.00 | 0.00 | 63 | 1014.6 |
| 20260831191601 | 20 | 298 | 3.2 | 9.7 | 0.00 | 0.00 | 0.00 | 64 | 1014.6 |
| 20260831191100 | 20 | 0 | 1.6 | 11.3 | 0.00 | 0.00 | 0.00 | 63 | 1014.7 |
| 20260831190559 | 20 | 329 | 4.8 | 11.3 | 0.00 | 0.00 | 0.00 | 63 | 1014.6 |
| 20260831190112 | 20 | 342 | 3.2 | 12.9 | 0.00 | 0.00 | 0.00 | 64 | 1014.6 |
| 20260831185700 | 20 | 326 | 4.8 | 14.5 | 0.00 | 0.00 | 0.00 | 64 | 1014.5 |
| 20260831185557 | 20 | 326 | 4.8 | 14.5 | 0.00 | 0.00 | 0.00 | 64 | 1014.5 |
| 20260831185056 | 20 | 275 | 0.0 | 14.5 | 0.00 | 0.00 | 0.00 | 66 | 1014.6 |
| 20260831184606 | 20 | 5 | 3.2 | 14.5 | 0.00 | 0.00 | 0.00 | 65 | 1014.7 |
| 20260831184057 | 20 | 278 | 0.0 | 11.3 | 0.00 | 0.00 | 0.00 | 67 | 1014.7 |
| 20260831183557 | 20 | 267 | 1.6 | 8.0 | 0.00 | 0.00 | 0.00 | 67 | 1014.8 |
| 20260831183103 | 19 | 352 | 3.2 | 8.0 | 0.00 | 0.00 | 0.00 | 66 | 1014.9 |
| 20260831182557 | 19 | 351 | 1.6 | 8.0 | 0.00 | 0.00 | 0.00 | 66 | 1015.0 |
| 20260831182152 | 19 | 0 | 3.2 | 9.7 | 0.00 | 0.00 | 0.00 | 67 | 1015.0 |
| 20260831182058 | 19 | 0 | 3.2 | 9.7 | 0.00 | 0.00 | 0.00 | 67 | 1015.0 |
| 20260831181653 | 18 | 281 | 3.2 | 12.9 | 0.00 | 0.00 | 0.00 | 68 | 1014.9 |
| 20260831181606 | 18 | 281 | 3.2 | 12.9 | 0.00 | 0.00 | 0.00 | 68 | 1014.9 |
| 20260831181139 | 18 | 265 | 4.8 | 12.9 | 0.00 | 0.00 | 0.00 | 68 | 1014.8 |
| 20260831181059 | 18 | 265 | 4.8 | 12.9 | 0.00 | 0.00 | 0.00 | 68 | 1014.8 |
| 20260831180713 | 18 | 352 | 4.8 | 11.3 | 0.00 | 0.00 | 0.00 | 69 | 1014.9 |
| 20260831180556 | 18 | 352 | 4.8 | 11.3 | 0.00 | 0.00 | 0.00 | 69 | 1014.9 |
| 20260831180149 | 18 | 306 | 4.8 | 11.3 | 0.00 | 0.00 | 0.00 | 68 | 1015.0 |
| 20260831180110 | 18 | 306 | 4.8 | 11.3 | 0.00 | 0.00 | 0.00 | 68 | 1015.0 |